This demonstration page uses our WeatherBlox Daily Observations layout. Learn more.

Left ArrowRight Arrow

41.55636, -103.73856

Hourly Observations for April 30, 2018

Temp ( °F °C ) Dew Point ( °F °C ) Humidity (%) Winds ( mph kmh ) Pressure ( in mb ) Visibility ( mi km ) Precip ( " mm )
12:58 am 00:58 Clear 55 12.9 31 -0.4 40 40 Calm 29.53 1000 10 16 N/A
1:58 am 01:58 Clear 47 8.5 37 3 69 69 E 12 19 29.56 1001 10 16 N/A
2:58 am 02:58 Clear 44 6.9 37 2.9 76 76 NNW 7 11 29.61 1003 10 16 N/A
3:58 am 03:58 Clear 43 6.3 37 3 80 80 NW 15 24 29.59 1002 10 16 N/A
4:58 am 04:58 Clear 43 6.2 38 3.1 81 81 NNW 17 28 29.60 1002 10 16 N/A
5:58 am 05:58 Sunny 42 5.7 37 3 83 83 NNW 18 30 29.60 1002 10 16 N/A
6:58 am 06:58 Sunny 43 6 38 3.4 84 84 NNW 20 31 29.63 1003 10 16 N/A
7:58 am 07:58 Sunny 46 7.5 39 3.9 78 78 N 22 35 29.62 1003 10 16 N/A
8:58 am 08:58 Sunny 49 9.6 40 4.5 71 71 N 22 35 29.62 1003 10 16 N/A
9:58 am 09:58 Sunny 54 12.4 42 5.3 62 62 N 20 31 29.62 1003 10 16 N/A
10:58 am 10:58 Mostly Sunny 55 12.8 42 5.5 61 61 N 13 20 29.63 1004 10 16 N/A
11:58 am 11:58 Mostly Cloudy 58 14.3 43 6.2 58 58 NNE 13 20 29.64 1004 10 16 N/A
12:58 pm 12:58 Sunny 60 15.4 43 5.9 53 53 NNE 14 22 29.64 1004 10 16 N/A
1:58 pm 13:58 Sunny 62 16.4 43 6.1 51 51 NE 17 28 29.64 1004 10 16 N/A
2:58 pm 14:58 Sunny 63 17 43 6 49 49 NNE 14 22 29.64 1004 10 16 N/A
3:58 pm 15:58 Sunny 62 16.9 44 6.4 50 50 ENE 14 22 29.62 1003 10 16 N/A
4:58 pm 16:58 Mostly Cloudy 57 14 43 5.9 58 58 N 13 20 29.71 1006 10 16 N/A
6:58 pm 18:58 Mostly Cloudy 54 12.2 43 6 66 66 NNE 14 22 29.68 1005 10 16 N/A
7:58 pm 19:58 Cloudy with Light Rain 52 11.3 43 6.1 71 71 ENE 10 17 29.72 1006 10 16 N/A
8:58 pm 20:58 Mostly Cloudy with Light Showers 52 10.9 44 6.4 74 74 NNE 15 24 29.71 1006 10 16 N/A
9:58 pm 21:58 Mostly Cloudy with Thunderstorms 45 7.3 41 5.2 87 87 N 22 35 29.76 1008 10 16 0.01 0.25
10:58 pm 22:58 Mostly Cloudy with Light Showers 44 6.7 42 5.3 91 91 NNE 17 28 29.75 1008 10 16 N/A
11:58 pm 23:58 Clear 42 5.5 40 4.4 93 93 ENE 10 17 29.76 1008 10 16 0.00 0.00

Powered by AerisWeather